Location: Unspecified
(48.8656°N, 0.0000°E)
Time: 14:26:57
(UTC+00:00)

Transit 2A Rocket - Pass Details

Date: 18 June 2019
Orbit: 588 x 915 km, 66.7° (Epoch: 15 July)

Event Time Altitude Azimuth Distance (km) Brightness Sun altitude
Rises 18:33:58 0° 325° (NW) 3,389 9.4 12.3°
Reaches altitude 10° 18:36:41 10° 333° (NNW) 2,401 8.5 11.9°
Maximum altitude 18:41:52 41° 43° (NE) 1,085 5.8 11.1°
Drops below altitude 10° 18:46:36 10° 114° (ESE) 2,179 6.8 10.4°
Sets 18:48:56 0° 122° (ESE) 3,042 7.4 10.0°
